• In Uzbekistan
  • List of Countries
  • For 7 days
  • Water Temperature
  • Satellite Maps
  • Weather Map
  • Weather Widgets
  • user-avatar
    Login

    Hourly Weather Buenos Aires

    Today, 17 November, Friday

    Time Temperature Precipitation Wind Pressure Humidity
    00:00 +17°C° 0 mm 4 mps 756 mmHg 59%
    01:00 +15°C° 0 mm 4 mps 756 mmHg 61%
    02:00 +15°C° 0 mm 5 mps 756 mmHg 63%
    03:00 +15°C° 0 mm 5 mps 756 mmHg 66%
    04:00 +14°C° 0 mm 5 mps 756 mmHg 69%
    05:00 +14°C° 0 mm 5 mps 756 mmHg 73%
    06:00 +16°C° 0 mm 5 mps 756 mmHg 67%
    07:00 +19°C° 0 mm 5 mps 756 mmHg 61%
    08:00 +20°C° 0 mm 6 mps 755 mmHg 59%
    09:00 +22°C° 0 mm 6 mps 755 mmHg 51%
    10:00 +25°C° 0 mm 5 mps 755 mmHg 44%
    11:00 +27°C° 0 mm 5 mps 754 mmHg 37%
    12:00 +27°C° 0 mm 4 mps 754 mmHg 36%
    13:00 +28°C° 0 mm 4 mps 754 mmHg 34%
    14:00 +28°C° 0 mm 4 mps 753 mmHg 33%
    15:00 +27°C° 0 mm 4 mps 753 mmHg 39%
    16:00 +26°C° 0 mm 5 mps 753 mmHg 44%
    17:00 +25°C° 0 mm 5 mps 753 mmHg 49%
    18:00 +22°C° 0 mm 5 mps 754 mmHg 46%
    19:00 +21°C° 0 mm 5 mps 754 mmHg 43%
    20:00 +19°C° 0 mm 6 mps 755 mmHg 40%
    21:00 +17°C° 0 mm 6 mps 756 mmHg 43%
    22:00 +16°C° 0 mm 6 mps 757 mmHg 46%
    23:00 +15°C° 0 mm 6 mps 757 mmHg 49%

    Tomorrow, 18 November, Saturday

    Time Temperature Precipitation Wind Pressure Humidity
    00:00 +13°C° 0 mm 5 mps 757 mmHg 57%
    01:00 +12°C° 0 mm 5 mps 758 mmHg 65%
    02:00 +10°C° 0 mm 5 mps 758 mmHg 73%
    03:00 +10°C° 0 mm 4 mps 758 mmHg 74%
    04:00 +10°C° 0 mm 4 mps 758 mmHg 75%
    05:00 +8°C° 0 mm 4 mps 759 mmHg 76%
    06:00 +11°C° 0 mm 4 mps 759 mmHg 64%
    07:00 +13°C° 0 mm 4 mps 759 mmHg 52%
    08:00 +15°C° 0 mm 5 mps 760 mmHg 41%
    09:00 +16°C° 0 mm 5 mps 759 mmHg 38%
    10:00 +17°C° 0 mm 6 mps 759 mmHg 35%
    11:00 +19°C° 0 mm 6 mps 759 mmHg 32%
    12:00 +20°C° 0 mm 6 mps 758 mmHg 30%
    13:00 +20°C° 0 mm 6 mps 758 mmHg 28%
    14:00 +21°C° 0 mm 6 mps 758 mmHg 26%
    15:00 +21°C° 0 mm 6 mps 757 mmHg 27%
    16:00 +20°C° 0 mm 5 mps 757 mmHg 29%
    17:00 +20°C° 0 mm 5 mps 756 mmHg 30%
    18:00 +19°C° 0 mm 4 mps 757 mmHg 33%
    19:00 +17°C° 0 mm 3 mps 757 mmHg 35%
    20:00 +16°C° 0 mm 2 mps 757 mmHg 37%
    21:00 +16°C° 0 mm 2 mps 757 mmHg 37%
    22:00 +14°C° 0 mm 3 mps 757 mmHg 36%
    23:00 +14°C° 0 mm 3 mps 757 mmHg 36%

    Day after tomorrow, 19 November, Sunday

    Time Temperature Precipitation Wind Pressure Humidity
    00:00 +14°C° 0 mm 4 mps 756 mmHg 36%
    01:00 +14°C° 0 mm 5 mps 755 mmHg 36%
    02:00 +15°C° 0 mm 6 mps 755 mmHg 35%
    03:00 +15°C° 0 mm 6 mps 755 mmHg 35%
    04:00 +14°C° 0 mm 7 mps 755 mmHg 34%
    05:00 +14°C° 0 mm 7 mps 755 mmHg 34%
    06:00 +16°C° 0 mm 7 mps 755 mmHg 33%
    07:00 +18°C° 0 mm 8 mps 755 mmHg 33%
    08:00 +20°C° 0 mm 8 mps 756 mmHg 32%
    09:00 +22°C° 0 mm 8 mps 755 mmHg 29%
    10:00 +26°C° 0 mm 7 mps 755 mmHg 27%
    11:00 +28°C° 0 mm 7 mps 755 mmHg 25%
    12:00 +28°C° 0 mm 7 mps 755 mmHg 26%
    13:00 +29°C° 0 mm 6 mps 754 mmHg 27%
    14:00 +29°C° 0 mm 6 mps 754 mmHg 28%
    15:00 +28°C° 0 mm 6 mps 754 mmHg 33%
    16:00 +27°C° 0 mm 6 mps 754 mmHg 39%
    17:00 +24°C° 0 mm 7 mps 755 mmHg 45%
    18:00 +22°C° 0 mm 7 mps 756 mmHg 52%
    19:00 +20°C° 0 mm 7 mps 757 mmHg 59%
    20:00 +17°C° 0 mm 7 mps 758 mmHg 67%
    21:00 +16°C° 0 mm 6 mps 758 mmHg 67%
    22:00 +15°C° 0 mm 6 mps 759 mmHg 67%
    23:00 +14°C° 0 mm 6 mps 759 mmHg 67%

    20 November, Monday

    Time Temperature Precipitation Wind Pressure Humidity
    00:00 +14°C° 0 mm 6 mps 759 mmHg 66%
    01:00 +13°C° 0 mm 6 mps 759 mmHg 66%
    02:00 +13°C° 0 mm 6 mps 759 mmHg 65%
    03:00 +13°C° 0.1 mm 5 mps 759 mmHg 67%
    04:00 +13°C° 0.1 mm 5 mps 759 mmHg 69%
    05:00 +13°C° 0.1 mm 4 mps 759 mmHg 71%
    06:00 +14°C° 0.1 mm 5 mps 759 mmHg 71%
    07:00 +15°C° 0.1 mm 5 mps 759 mmHg 70%
    08:00 +16°C° 0.1 mm 6 mps 759 mmHg 69%
    09:00 +16°C° 0.1 mm 5 mps 759 mmHg 67%
    10:00 +18°C° 0.1 mm 4 mps 758 mmHg 65%
    11:00 +19°C° 0.1 mm 3 mps 758 mmHg 63%
    12:00 +20°C° 0.4 mm 3 mps 757 mmHg 64%
    13:00 +20°C° 0.4 mm 2 mps 757 mmHg 65%
    14:00 +20°C° 0.4 mm 2 mps 757 mmHg 66%
    15:00 +21°C° 0 mm 2 mps 757 mmHg 65%
    16:00 +21°C° 0 mm 2 mps 756 mmHg 64%
    17:00 +21°C° 0 mm 2 mps 756 mmHg 64%
    18:00 +20°C° 0 mm 2 mps 756 mmHg 68%
    19:00 +19°C° 0 mm 2 mps 757 mmHg 72%
    20:00 +18°C° 0 mm 2 mps 757 mmHg 76%
    21:00 +18°C° 0 mm 3 mps 758 mmHg 75%
    22:00 +16°C° 0 mm 5 mps 759 mmHg 75%
    23:00 +16°C° 0 mm 6 mps 760 mmHg 74%

    21 November, Tuesday

    Time Temperature Precipitation Wind Pressure Humidity
    00:00 +15°C° 0.1 mm 6 mps 761 mmHg 69%
    01:00 +14°C° 0.1 mm 6 mps 761 mmHg 64%
    02:00 +13°C° 0.1 mm 6 mps 761 mmHg 58%
    03:00 +13°C° 0 mm 5 mps 761 mmHg 58%
    04:00 +12°C° 0 mm 5 mps 762 mmHg 58%
    05:00 +12°C° 0 mm 5 mps 762 mmHg 58%
    06:00 +13°C° 0 mm 4 mps 762 mmHg 52%
    07:00 +14°C° 0 mm 4 mps 762 mmHg 46%
    08:00 +17°C° 0 mm 4 mps 763 mmHg 40%
    09:00 +18°C° 0 mm 4 mps 763 mmHg 36%
    10:00 +19°C° 0 mm 3 mps 763 mmHg 32%
    11:00 +21°C° 0 mm 3 mps 762 mmHg 27%
    12:00 +22°C° 0 mm 3 mps 762 mmHg 27%
    13:00 +22°C° 0 mm 3 mps 762 mmHg 26%
    14:00 +24°C° 0 mm 3 mps 761 mmHg 26%
    15:00 +24°C° 0 mm 3 mps 761 mmHg 28%
    16:00 +22°C° 0 mm 3 mps 761 mmHg 30%
    17:00 +22°C° 0 mm 3 mps 761 mmHg 33%
    18:00 +20°C° 0 mm 3 mps 761 mmHg 38%
    19:00 +19°C° 0 mm 3 mps 762 mmHg 43%
    20:00 +17°C° 0 mm 3 mps 762 mmHg 48%
    21:00 +16°C° 0 mm 3 mps 762 mmHg 52%
    22:00 +15°C° 0 mm 4 mps 762 mmHg 56%
    23:00 +14°C° 0 mm 4 mps 762 mmHg 60%

    22 November, Wednesday

    Time Temperature Precipitation Wind Pressure Humidity
    00:00 +14°C° 0 mm 4 mps 762 mmHg 60%
    01:00 +13°C° 0 mm 4 mps 761 mmHg 61%
    02:00 +13°C° 0 mm 4 mps 761 mmHg 62%
    03:00 +13°C° 0 mm 4 mps 761 mmHg 62%
    04:00 +12°C° 0 mm 4 mps 761 mmHg 62%
    05:00 +12°C° 0 mm 5 mps 761 mmHg 62%
    06:00 +14°C° 0 mm 5 mps 761 mmHg 56%
    07:00 +16°C° 0 mm 5 mps 761 mmHg 49%
    08:00 +19°C° 0 mm 6 mps 761 mmHg 42%
    09:00 +21°C° 0 mm 6 mps 760 mmHg 37%
    10:00 +23°C° 0 mm 6 mps 760 mmHg 33%
    11:00 +26°C° 0 mm 6 mps 759 mmHg 28%
    12:00 +28°C° 0 mm 6 mps 759 mmHg 26%
    13:00 +29°C° 0 mm 6 mps 758 mmHg 25%
    14:00 +30°C° 0 mm 6 mps 757 mmHg 23%
    15:00 +30°C° 0 mm 6 mps 756 mmHg 25%
    16:00 +29°C° 0 mm 5 mps 756 mmHg 27%
    17:00 +29°C° 0 mm 5 mps 755 mmHg 29%
    18:00 +27°C° 0.1 mm 5 mps 755 mmHg 36%
    19:00 +25°C° 0.1 mm 5 mps 756 mmHg 42%
    20:00 +22°C° 0.1 mm 5 mps 756 mmHg 48%
    21:00 +21°C° 0 mm 6 mps 756 mmHg 49%
    22:00 +21°C° 0 mm 6 mps 756 mmHg 49%
    23:00 +20°C° 0 mm 6 mps 756 mmHg 49%
    Show more